Location: Bocianicha
(51.5066°N, 19.2563°E)
Time: 14:37:53
(UTC+00:00)

ADEOS II - Pass Details

Date: 15 June 2025
Orbit: 794 x 795 km, 98.7° (Epoch: 17 July)

Event Time Altitude Azimuth Distance (km) Brightness Sun altitude
Rises 00:45:57 0° 21° (NNE) 3,310 7.4 -10.5°
Reaches altitude 10° 00:48:29 10° 30° (NNE) 2,375 6.2 -10.3°
Maximum altitude 00:53:18 35° 96° (E) 1,256 3.4 -9.9°
Drops below altitude 10° 00:58:03 10° 162° (SSE) 2,359 4.1 -9.6°
Enters shadow 00:59:50 - 169° (S) 3,011 4.6 -9.4°
